Regional Weather Roundup
Issued by NWS Bismarck, ND

Home | Current Version | Previous Version | Text Only | Print | Product List | Glossary On
Versions: 1 2 3 4 5 6 7 8 9 10 11 12 13 14 15 16 17 18 19 20 21 22 23 24 25 26 27 28 29 30 31 32 33 34 35 36 37 38 39 40 41 42 43 44 45 46 47 48 49 50
269
ASUS43 KBIS 170810
RWRBIS

NWR BROADCAST TEXT
NATIONAL WEATHER SERVICE BISMARCK ND
300 AM CDT TUE OCT 17 2017

NOTE: "FAIR" INDICATES FEW OR NO CLOUDS BELOW 12,000 FEET WITH NO
SIGNIFICANT WEATHER AND/OR OBSTRUCTIONS TO VISIBILITY.


CITY           SKY/WX    TMP DP  RH WIND       PRES   REMARKS
WILLISTON      CLOUDY    40  32  73 SW7       29.89F
MINOT          CLEAR     48  33  56 S9        29.87F
MINOT AFB      NOT AVBL
BISMARCK       CLEAR     35  30  82 CALM      29.97F
DICKINSON      CLEAR     43  30  60 S9        29.95F
GARRISON         N/A     41  37  86 CALM      29.92S
HETTINGER ARPT CLOUDY    34  26  72 CALM      30.02F
JAMESTOWN      CLOUDY    42  33  70 NW5       29.94S
CARRINGTON     FAIR      41  34  75 W7        29.95S
HAZEN          FAIR      34  32  93 CALM      29.95F
LINTON           N/A     30  23  74 CALM      30.00S
RUGBY          FAIR      41  34  75 S9        29.88F
STANLEY        FAIR      43  32  65 S7        29.90F
TIOGA          FAIR      46  30  53 S14       29.88F
WATFORD CITY   FAIR      41  32  70 SW10      29.90F
$$

CITY           SKY/WX    TMP DP  RH WIND       PRES   REMARKS
GRAND FORKS    CLOUDY    39  34  82 SW5       29.90S
GRAND FORKS AF NOT AVBL
DEVILS LAKE    CLOUDY    42  37  82 CALM      29.91F
FARGO          CLOUDY    39  34  82 SW3       29.93S
CANDO          FAIR      34  34 100 SW5       29.90F
CAVALIER       FAIR      46  36  66 W6        29.86F
GRAFTON        FAIR      36  32  87 SW10      29.90S
GWINNER          N/A     43  36  75 SW9       29.95S
LANGDON        FAIR      36  32  87 SW8       29.89F
ROLLA          FAIR      41  32  70 SW8       29.87F
WALHALLA       FAIR     N/A N/A N/A SW6       29.86S
$$

CITY           SKY/WX    TMP DP  RH WIND       PRES   REMARKS
ABERDEEN       CLOUDY    33  32  96 S7        29.99S
MOBRIDGE       CLEAR     37  32  82 E3        29.98F
BUFFALO          N/A     48  26  42 W10       29.97S
RAPID CITY     CLEAR     44  27  51 W8        30.09S
GLASGOW        CLEAR     49  27  42 VRB3      29.87S
SIDNEY         CLEAR     42  31  64 S12       29.92S
WOLF POINT     CLOUDY    37  29  72 NW3       29.89S
GLENDIVE       CLEAR     41  30  65 S7        29.95F
MILES CITY     CLEAR     44  30  57 SE8       29.99S
BAKER          CLEAR     46  29  51 W5        30.00F
$$

CITY           SKY/WX    TMP DP  RH WIND       PRES   REMARKS
BILLINGS       CLEAR     49  26  41 SW12      30.07S
GREAT FALLS    CLEAR     56  23  27 SW20      29.98S
REGINA         PTCLDY    46  30  53 SW12      29.71F
ESTEVAN        CLEAR     46  32  57 SW14      29.80F
$$





USA.gov is the U.S. government's official web portal to all federal, state and local government web resources and services.